owner,sensor,date,latitude,longitude,vertical_datum,wind_speed,wind_to_direction,wind_speed_of_gust,qcFlag 
TABS,ioos:station:wmo:42046:1,2003-01-30T04:39:00Z,27.8903,-94.0367,4.0,5.350934498,234.2010105,85.65,'11111222,11111222,11144222' 
TABS,ioos:station:wmo:42046:1,2003-01-30T05:09:00Z,27.8903,-94.0367,4.0,3.760119679,232.6730522,5.74,'11111222,11111222,11111222' 
TABS,ioos:station:wmo:42046:1,2003-01-30T05:39:00Z,27.8903,-94.0367,4.0,3.542386201,235.2333209,5.45,'11111222,11111222,11111222' 
TABS,ioos:station:wmo:42046:1,2003-01-30T06:09:00Z,27.8903,-94.0367,4.0,7.705089227,2.082349951,11.0,'11111222,11111222,11111222' 
TABS,ioos:station:wmo:42046:1,2003-01-30T06:39:00Z,27.8903,-94.0367,4.0,7.719514233,12.72178002,11.08,'11111222,11111222,11111222' 
TABS,ioos:station:wmo:42046:1,2003-01-30T07:09:00Z,27.8903,-94.0367,4.0,7.364950781,18.3608924,10.51,'11111222,11111222,11111222' 
TABS,ioos:station:wmo:42046:1,2003-01-30T07:39:00Z,27.8903,-94.0367,4.0,7.645501946,14.85393448,11.19,'11111222,11111222,11111222' 
TABS,ioos:station:wmo:42046:1,2003-01-30T08:09:00Z,27.8903,-94.0367,4.0,7.187913466,18.6615576,10.44,'11111222,11111222,11111222' 
TABS,ioos:station:wmo:42046:1,2003-01-30T08:39:00Z,27.8903,-94.0367,4.0,7.280054945,23.81838434,10.22,'11111222,11111222,11111222' 
TABS,ioos:station:wmo:42046:1,2003-01-30T09:09:00Z,27.8903,-94.0367,4.0,7.088032167,21.60601037,9.8,'11111222,11111222,11111222' 
TABS,ioos:station:wmo:42046:1,2003-01-30T09:39:00Z,27.8903,-94.0367,4.0,6.692690042,23.23204896,9.94,'11111222,11111222,11111222' 
TABS,ioos:station:wmo:42046:1,2003-01-30T10:09:00Z,27.8903,-94.0367,4.0,6.680726008,20.6862776,9.62,'11111222,11111222,11111222' 
TABS,ioos:station:wmo:42046:1,2003-01-30T10:39:00Z,27.8903,-94.0367,4.0,6.81190135,19.0198672,10.23,'11111222,11111222,11111222' 
TABS,ioos:station:wmo:42046:1,2003-01-30T11:09:00Z,27.8903,-94.0367,4.0,6.861668893,22.26632575,10.36,'11111222,11111222,11111222' 
TABS,ioos:station:wmo:42046:1,2003-01-30T11:39:00Z,27.8903,-94.0367,4.0,7.054849396,16.0455493,10.2,'11111222,11111222,11111222' 
TABS,ioos:station:wmo:42046:1,2003-01-30T12:09:00Z,27.8903,-94.0367,4.0,7.484931529,15.577132,10.59,'11111222,11111222,11111222' 
TABS,ioos:station:wmo:42046:1,2003-01-30T12:39:00Z,27.8903,-94.0367,4.0,6.946437936,11.37439983,11.14,'11111222,11111222,11111222' 
TABS,ioos:station:wmo:42046:1,2003-01-30T13:09:00Z,27.8903,-94.0367,4.0,6.317823992,16.74242683,10.26,'11111222,11111222,11111222' 
TABS,ioos:station:wmo:42046:1,2003-01-30T13:39:00Z,27.8903,-94.0367,4.0,6.204143777,22.05838507,9.08,'11111222,11111222,11111222' 
TABS,ioos:station:wmo:42046:1,2003-01-30T14:09:00Z,27.8903,-94.0367,4.0,5.997216021,26.8638583,8.77,'11111222,11111222,11111222' 
TABS,ioos:station:wmo:42046:1,2003-01-30T14:39:00Z,27.8903,-94.0367,4.0,5.5532513,24.58030841,8.49,'11111222,11111222,11111222' 
TABS,ioos:station:wmo:42046:1,2003-01-30T15:09:00Z,27.8903,-94.0367,4.0,5.927647088,28.07789662,8.85,'11111222,11111222,11111222' 
TABS,ioos:station:wmo:42046:1,2003-01-30T15:39:00Z,27.8903,-94.0367,4.0,5.268491245,30.70236251,8.3,'11111222,11111222,11111222' 
TABS,ioos:station:wmo:42046:1,2003-01-30T16:09:00Z,27.8903,-94.0367,4.0,5.174330875,26.26765605,7.9,'11111222,11111222,11111222' 
TABS,ioos:station:wmo:42046:1,2003-01-30T16:39:00Z,27.8903,-94.0367,4.0,4.584157502,30.98490862,8.34,'11111222,11111222,11111222' 
TABS,ioos:station:wmo:42046:1,2003-01-30T17:09:00Z,27.8903,-94.0367,4.0,4.746925321,22.67530955,7.3,'11111222,11111222,11111222' 
TABS,ioos:station:wmo:42046:1,2003-01-30T17:39:00Z,27.8903,-94.0367,4.0,5.413187601,22.25321408,7.94,'11111222,11111222,11111222' 
TABS,ioos:station:wmo:42046:1,2003-01-30T18:09:00Z,27.8903,-94.0367,4.0,4.951252367,39.50893895,7.74,'11111222,11111222,11111222' 
TABS,ioos:station:wmo:42046:1,2003-01-30T18:39:00Z,27.8903,-94.0367,4.0,4.784809296,35.81578654,7.6,'11111222,11111222,11111222' 
TABS,ioos:station:wmo:42046:1,2003-01-30T19:09:00Z,27.8903,-94.0367,4.0,4.316480047,20.61792945,7.82,'11111222,11111222,11111222' 
TABS,ioos:station:wmo:42046:1,2003-01-30T19:39:00Z,27.8903,-94.0367,4.0,3.971662121,29.40462486,7.01,'11111222,11111222,11111222' 
TABS,ioos:station:wmo:42046:1,2003-01-30T20:09:00Z,27.8903,-94.0367,4.0,3.613377921,44.66331452,6.84,'11111222,11111222,11111222' 
TABS,ioos:station:wmo:42046:1,2003-01-30T20:39:00Z,27.8903,-94.0367,4.0,2.510318705,57.19586112,4.61,'11111222,11111222,11111222' 
TABS,ioos:station:wmo:42046:1,2003-01-30T21:09:00Z,27.8903,-94.0367,4.0,2.455402207,64.16509601,5.4,'11111222,11111222,11111222' 
TABS,ioos:station:wmo:42046:1,2003-01-30T21:39:00Z,27.8903,-94.0367,4.0,2.802320467,59.31640995,4.69,'11111222,11111222,11111222' 
TABS,ioos:station:wmo:42046:1,2003-01-30T22:09:00Z,27.8903,-94.0367,4.0,2.736512379,45.14773475,5.05,'11111222,11111222,11111222' 
TABS,ioos:station:wmo:42046:1,2003-01-30T22:39:00Z,27.8903,-94.0367,4.0,2.560956852,54.69605518,5.49,'11111222,11111222,11111222' 
TABS,ioos:station:wmo:42046:1,2003-01-30T23:09:00Z,27.8903,-94.0367,4.0,2.568443108,55.62900453,4.97,'11111222,11111222,11111222' 
TABS,ioos:station:wmo:42046:1,2003-01-30T23:39:00Z,27.8903,-94.0367,4.0,2.1302582,77.52914652,4.63,'11111222,11111222,11111222' 
TABS,ioos:station:wmo:42046:1,2003-01-31T00:09:00Z,27.8903,-94.0367,4.0,2.268325373,69.88703783,4.11,'11111222,11111222,11111222' 
TABS,ioos:station:wmo:42046:1,2003-01-31T00:39:00Z,27.8903,-94.0367,4.0,2.142825238,64.86967137,4.13,'11111222,11111222,11111222' 
TABS,ioos:station:wmo:42046:1,2003-01-31T01:09:00Z,27.8903,-94.0367,4.0,1.937859644,75.96336844,3.94,'11111222,11111222,11111222' 
TABS,ioos:station:wmo:42046:1,2003-01-31T01:39:00Z,27.8903,-94.0367,4.0,1.640487732,44.99968431,3.83,'11111222,11111222,11111222' 
TABS,ioos:station:wmo:42046:1,2003-01-31T02:09:00Z,27.8903,-94.0367,4.0,3.855191305,39.8433251,6.29,'11111222,11111222,11111222' 
TABS,ioos:station:wmo:42046:1,2003-01-31T02:39:00Z,27.8903,-94.0367,4.0,3.84980519,42.68384296,5.96,'11111222,11111222,11111222' 
TABS,ioos:station:wmo:42046:1,2003-01-31T03:09:00Z,27.8903,-94.0367,4.0,3.915226686,54.56405491,6.18,'11111222,11111222,11111222' 
TABS,ioos:station:wmo:42046:1,2003-01-31T03:39:00Z,27.8903,-94.0367,4.0,3.903024468,65.79866408,5.94,'11111222,11111222,11111222' 
TABS,ioos:station:wmo:42046:1,2003-01-31T04:09:00Z,27.8903,-94.0367,4.0,3.520184654,82.49099906,5.71,'11111222,11111222,11111222' 
TABS,ioos:station:wmo:42046:1,2003-01-31T04:39:00Z,27.8903,-94.0367,4.0,2.895047495,82.45726631,5.55,'11111222,11111222,11111222' 
TABS,ioos:station:wmo:42046:1,2003-01-31T05:09:00Z,27.8903,-94.0367,4.0,2.984292211,93.07374624,5.34,'11111222,11111222,11111222' 
TABS,ioos:station:wmo:42046:1,2003-01-31T05:39:00Z,27.8903,-94.0367,4.0,2.650358466,98.68081904,5.18,'11111222,11111222,11111222' 
TABS,ioos:station:wmo:42046:1,2003-01-31T06:39:00Z,27.8903,-94.0367,4.0,2.431871707,95.66411393,4.48,'11111222,11111222,11111222' 
TABS,ioos:station:wmo:42046:1,2003-01-31T07:09:00Z,27.8903,-94.0367,4.0,1.665082581,94.47829002,3.85,'11111222,11111222,11111222' 
TABS,ioos:station:wmo:42046:1,2003-01-31T07:39:00Z,27.8903,-94.0367,4.0,1.697792685,129.503436,4.29,'11111222,11111222,11111222' 
TABS,ioos:station:wmo:42046:1,2003-01-31T08:09:00Z,27.8903,-94.0367,4.0,1.248078523,142.4876864,3.16,'11111222,11111222,11111222' 
TABS,ioos:station:wmo:42046:1,2003-01-31T08:39:00Z,27.8903,-94.0367,4.0,1.467787451,160.083851,3.77,'11111222,11111222,11111222' 
TABS,ioos:station:wmo:42046:1,2003-01-31T09:39:00Z,27.8903,-94.0367,4.0,0.41,180.0002105,2.85,'11111222,11111222,11111222' 
TABS,ioos:station:wmo:42046:1,2003-01-31T10:09:00Z,27.8903,-94.0367,4.0,0.834326075,193.8698645,2.49,'11111222,11111222,11111222' 
TABS,ioos:station:wmo:42046:1,2003-01-31T10:39:00Z,27.8903,-94.0367,4.0,0.541202365,16.09056826,2.71,'11111222,11111222,11111222' 
TABS,ioos:station:wmo:42046:1,2003-01-31T11:09:00Z,27.8903,-94.0367,4.0,1.119464158,18.75839602,2.61,'11111222,11111222,11111222' 
TABS,ioos:station:wmo:42046:1,2003-01-31T11:39:00Z,27.8903,-94.0367,4.0,1.712921481,356.6529787,3.93,'11111222,11111222,11111222' 
TABS,ioos:station:wmo:42046:1,2003-01-31T12:09:00Z,27.8903,-94.0367,4.0,1.306139349,11.48175405,3.27,'11111222,11111222,11111222' 
TABS,ioos:station:wmo:42046:1,2003-01-31T12:39:00Z,27.8903,-94.0367,4.0,0.724223722,342.3154389,3.01,'11111222,11111222,11111222' 
TABS,ioos:station:wmo:42046:1,2003-01-31T13:09:00Z,27.8903,-94.0367,4.0,1.072007463,345.9635789,3.14,'11111222,11111222,11111222' 
TABS,ioos:station:wmo:42046:1,2003-01-31T13:39:00Z,27.8903,-94.0367,4.0,0.961769203,351.0271839,2.73,'11111222,11111222,11111222' 
TABS,ioos:station:wmo:42046:1,2003-01-31T14:09:00Z,27.8903,-94.0367,4.0,1.727020556,342.8239261,3.29,'11111222,11111222,11111222' 
TABS,ioos:station:wmo:42046:1,2003-01-31T14:39:00Z,27.8903,-94.0367,4.0,1.193314711,39.559365,3.38,'11111222,11111222,11111222' 
TABS,ioos:station:wmo:42046:1,2003-01-31T15:09:00Z,27.8903,-94.0367,4.0,1.641036258,46.48113802,3.26,'11111222,11111222,11111222' 
TABS,ioos:station:wmo:42046:1,2003-01-31T15:39:00Z,27.8903,-94.0367,4.0,1.394022955,36.54079169,3.03,'11111222,11111222,11111222' 
TABS,ioos:station:wmo:42046:1,2003-01-31T16:09:00Z,27.8903,-94.0367,4.0,1.296186715,144.1029169,2.9,'11111222,11111222,11111222' 
TABS,ioos:station:wmo:42046:1,2003-01-31T16:39:00Z,27.8903,-94.0367,4.0,0.702353188,208.0246455,2.06,'11111222,11111222,11111222' 
TABS,ioos:station:wmo:42046:1,2003-01-31T17:09:00Z,27.8903,-94.0367,4.0,0.666033032,221.347891,1.79,'11111222,11111222,11111222' 
TABS,ioos:station:wmo:42046:1,2003-01-31T17:39:00Z,27.8903,-94.0367,4.0,1.562721984,224.7408507,2.59,'11111222,11111222,11111222' 
TABS,ioos:station:wmo:42046:1,2003-01-31T18:09:00Z,27.8903,-94.0367,4.0,2.152324325,235.7931831,3.45,'11111222,11111222,11111222' 
TABS,ioos:station:wmo:42046:1,2003-01-31T18:39:00Z,27.8903,-94.0367,4.0,2.370084387,249.5005911,3.73,'11111222,11111222,11111222' 
TABS,ioos:station:wmo:42046:1,2003-01-31T19:09:00Z,27.8903,-94.0367,4.0,0.850235262,271.3478841,2.69,'11111222,11111222,11111222' 
TABS,ioos:station:wmo:42046:1,2003-01-31T19:39:00Z,27.8903,-94.0367,4.0,2.158633827,345.5129483,3.85,'11111222,11111222,11111222' 
TABS,ioos:station:wmo:42046:1,2003-01-31T20:09:00Z,27.8903,-94.0367,4.0,2.682461556,345.7563623,4.5,'11111222,11111222,11111222' 
TABS,ioos:station:wmo:42046:1,2003-01-31T20:39:00Z,27.8903,-94.0367,4.0,3.199031103,7.724605404,5.06,'11111222,11111222,11111222' 
TABS,ioos:station:wmo:42046:1,2003-01-31T21:09:00Z,27.8903,-94.0367,4.0,3.426441303,3.513531585,5.32,'11111222,11111222,11111222' 
TABS,ioos:station:wmo:42046:1,2003-01-31T21:39:00Z,27.8903,-94.0367,4.0,5.106593777,12.78413307,7.53,'11111222,11111222,11111222' 
TABS,ioos:station:wmo:42046:1,2003-01-31T22:09:00Z,27.8903,-94.0367,4.0,3.830156655,14.97935178,5.96,'11111222,11111222,11111222' 
TABS,ioos:station:wmo:42046:1,2003-01-31T22:39:00Z,27.8903,-94.0367,4.0,2.141331362,5.896739262,4.78,'11111222,11111222,11111222' 
TABS,ioos:station:wmo:42046:1,2003-01-31T23:09:00Z,27.8903,-94.0367,4.0,2.08405854,3.576115553,4.16,'11111222,11111222,11111222' 
TABS,ioos:station:wmo:42046:1,2003-01-31T23:39:00Z,27.8903,-94.0367,4.0,1.128051417,335.9342142,3.06,'11111222,11111222,11111222' 
 
DISCLAIMER: The Gulf of Mexico Coastal and Ocean Observing (GCOOS) Data Portal aggregates data from the regional data providers for the convenience of all data users. Data published on this website should not be used for navigation or certain other uses as we cannot guarantee data accuracy or availability. The data and delivery services are provided 'as is' without warranty of any kind. Data Source: Gulf of Mexico Coastal Ocean Observing System Data Portal (http://data.gcoos.org/) 
